User: anonymous   Login
Location: Weston
(26.1283°N, 80.4075°W)
Time: 14:47:21
(UTC-04:00)
Language:

H-2A R/B - Orbit

View from above orbital plane
View from above orbital plane
View from above satellite
View from above satellite

Ground track
Ground track

The orbit data is extracted from the following two-line orbital elements,

1 26899U 01038B   17205.97582534 +.00000321 +00000-0 +12633-3 0  9998
2 26899 028.4247 049.4383 7117518 213.8581 067.9782 02.48102801137457
Epoch (UTC): 24 July 2017 23:25:11
Eccentricity: 0.7117518
inclination: 28.4247°
perigee height: 265 km
apogee height: 33075 km
right ascension of ascending node: 49.4383°
argument of perigee: 213.8581°
revolutions per day: 2.48102801
mean anomaly at epoch: 67.9782°
orbit number at epoch: 13745

The dashed part of the orbit path shows where the satellite is in the earth's shadow,  

DLR